Location: Fort Worth, Tx
(32.7431°N, 97.3695°W)
Time: 07:17:29
(UTC-04:00)

NOAA 18 - Visible Passes

Search period start: 20 April 2024 00:00
Search period end: 30 April 2024 00:00
Orbit: 838 x 858 km, 98.9° (Epoch: 20 April)

Date Brightness Start Highest point End Pass type
(mag) Time Alt. Az. Time Alt. Az. Time Alt. Az.
20 Apr 7.8 01:33:02 15° NW 01:33:02 15° NW 01:34:08 10° NNW visible
20 Apr 7.2 23:38:23 17° NE 23:38:23 17° NE 23:40:17 10° NNE visible
21 Apr 7.5 01:20:19 19° NW 01:20:19 19° NW 01:21:55 10° NNW visible
21 Apr 7.3 23:25:40 14° NE 23:25:40 14° NE 23:27:08 10° NNE visible
22 Apr 7.3 01:07:37 23° NNW 01:07:37 23° NNW 01:09:37 10° NNW visible
22 Apr 7.5 23:12:57 11° NE 23:12:57 11° NE 23:13:27 10° NE visible
23 Apr 7.1 00:54:54 26° NNW 00:54:54 26° NNW 00:57:13 10° NNW visible
24 Apr 6.9 00:42:11 29° N 00:42:11 29° N 00:44:45 10° N visible
25 Apr 6.8 00:29:28 30° N 00:29:28 30° N 00:32:13 10° N visible
26 Apr 6.7 00:16:45 29° NNE 00:16:45 29° NNE 00:19:36 10° N visible
26 Apr 7.9 01:58:42 11° NW 01:58:42 11° NW 01:59:00 10° NW visible
27 Apr 6.8 00:04:02 26° NNE 00:04:02 26° NNE 00:06:54 10° N visible
27 Apr 7.7 01:45:59 15° NW 01:45:59 15° NW 01:47:06 10° NW visible
27 Apr 6.9 23:51:19 22° NE 23:51:19 22° NE 23:54:07 10° NNE visible
28 Apr 7.5 01:33:16 19° NW 01:33:16 19° NW 01:35:00 10° NW visible
28 Apr 7.0 23:38:36 19° NE 23:38:36 19° NE 23:41:12 10° NNE visible
29 Apr 7.2 01:20:33 23° NW 01:20:33 23° NW 01:22:47 10° NNW visible
29 Apr 7.2 23:25:53 15° NE 23:25:53 15° NE 23:28:03 10° NNE visible
